IRIDIUM 2 [-] (25527 NORAD) Tracking and Keplerian Element Data

This shows tracking and keplerian element data for the satellite.

Feedback or suggestion? Click here.




ElementValue
Catalog25527
NameIRIDIUM 2 [-]
Epoch Orbit7836
Epoch Day198.95958141
Epoch Year2018
RAAN158.4712
Inclination85.5315
Eccentricity0.0011486
Argument of Perigee78.0705
Mean Anonmoly282.1822
Mean Motion15.17475463
Decay Rate9.35E-06
L11 25527U 98066A 18198.95958141 .00000935 00000-0 44714-4 0 9990
L22 25527 85.5315 158.4712 0011486 78.0705 282.1822 15.17475463 78367

Live tracking and technical data element details for IRIDIUM 2 [-] (NORAD 25527). IRIDIUM 2 [-] can be tracked NOW for your location showing map with azimuth and elevation plus other details from your city location.

Track the satellite on the map from your city or location and see movement details for azimuth, elevation, latitude, longitude, range, height, and movement on the map or in text.







IsCatalogInMostPopularTable: catalog: 25527, numindb: 33
Update: records affected: 1



GetName: 25527 IRIDIUM 2 [-]

Hit Count: updated at: Fri, 20 Jul 2018 07:02:46 GMT